EW7199 Weather Reports


Display with metric or nautical units.
time (UTC)temp
F
wind
direction
speed
MPH
gust
MPH
rain 1hr
in
rain 24hr
in
rain mn
in
humidity
%
barometer
mb
20260507023408 61 101 2.0 3.0 0.00 0.10 0.10 93 1015.5
20260507022908 61 103 1.0 3.0 0.02 0.10 0.10 93 1015.5
20260507021908 61 124 2.0 5.0 0.06 0.10 0.10 93 1015.5
20260507021408 61 111 2.0 3.0 0.06 0.10 0.10 93 1015.4
20260507015908 62 119 2.0 5.0 0.07 0.10 0.10 93 1014.7
20260507014908 62 83 2.0 3.0 0.08 0.10 0.10 92 1014.2
20260507013908 62 60 3.0 6.0 0.08 0.10 0.10 92 1013.5
20260507013408 62 53 3.0 6.0 0.08 0.10 0.10 92 1013.3
20260507012407 62 51 2.0 5.0 0.03 0.05 0.05 92 1015.0
20260507011907 62 83 1.0 3.0 0.02 0.04 0.04 92 1015.6
20260507010909 62 5 1.0 3.0 0.01 0.03 0.03 92 1015.5
20260507010409 62 46 2.0 5.0 0.01 0.03 0.03 92 1015.3
20260507005908 62 286 0.0 2.0 0.01 0.03 0.03 92 1015.4
20260507005409 62 270 1.0 3.0 0.00 0.02 0.02 92 1015.3
20260507004909 62 15 1.0 3.0 0.00 0.02 0.02 92 1015.1
20260507004411 62 80 1.0 3.0 0.00 0.02 0.02 92 1015.3
20260507003408 62 112 2.0 3.0 0.00 0.02 0.02 92 1015.0
20260507002912 62 144 1.0 3.0 0.00 0.02 0.02 92 1014.9
20260507002409 62 107 1.0 3.0 0.00 0.02 0.02 92 1014.8
20260507001909 62 166 1.0 3.0 0.00 0.02 0.02 92 1014.9
20260507000909 62 108 1.0 3.0 0.00 0.02 0.02 92 1014.9
20260507000412 62 136 1.0 3.0 0.00 0.02 0.02 92 1015.0
20260506235909 62 100 2.0 3.0 0.00 0.02 0.02 92 1014.9
20260506234909 62 120 2.0 3.0 0.00 0.02 0.02 92 1014.9
20260506234410 62 95 2.0 3.0 0.01 0.02 0.02 92 1014.9
20260506233409 62 111 1.0 3.0 0.01 0.02 0.02 91 1015.0
20260506232915 62 135 2.0 3.0 0.01 0.02 0.02 91 1015.1
20260506231908 62 86 2.0 3.0 0.02 0.02 0.02 91 1014.8
20260506231408 62 70 1.0 3.0 0.02 0.02 0.02 91 1015.0
20260506230909 62 95 2.0 3.0 0.02 0.02 0.02 91 1014.9
20260506230411 63 81 2.0 3.0 0.02 0.02 0.02 90 1014.8
20260506225909 63 86 2.0 3.0 0.02 0.02 0.02 90 1014.8
20260506225407 63 111 2.0 3.0 0.02 0.02 0.02 90 1015.2
20260506224908 63 137 2.0 3.0 0.02 0.02 0.02 90 1015.3
20260506224408 63 96 2.0 3.0 0.01 0.01 0.01 89 1015.3
20260506223908 63 100 1.0 3.0 0.01 0.01 0.01 89 1015.3
20260506223409 63 77 2.0 3.0 0.01 0.01 0.01 89 1015.2
20260506222908 63 93 1.0 2.0 0.01 0.01 0.01 89 1015.3
20260506222409 63 146 2.0 3.0 0.00 0.00 0.00 89 1015.3
20260506221908 63 119 1.0 3.0 0.00 0.00 0.00 88 1015.2
20260506221408 63 86 2.0 3.0 0.00 0.00 0.00 88 1015.2
20260506220909 63 106 2.0 3.0 0.00 0.00 0.00 88 1015.2
20260506220408 63 91 2.0 3.0 0.00 0.00 0.00 88 1015.2
20260506215908 63 85 1.0 3.0 0.00 0.00 0.00 88 1015.2
20260506215409 63 118 1.0 3.0 0.00 0.00 0.00 88 1015.2
20260506214408 63 123 1.0 3.0 0.00 0.00 0.00 88 1015.2
20260506213909 63 152 2.0 3.0 0.00 0.00 0.00 88 1015.1
20260506213408 63 103 2.0 3.0 0.00 0.00 0.00 88 1015.1
20260506212409 63 145 2.0 5.0 0.00 0.00 0.00 88 1015.2
20260506211909 63 142 2.0 3.0 0.00 0.00 0.00 88 1015.2
20260506211407 63 131 2.0 3.0 0.00 0.00 0.00 88 1015.1
20260506210909 63 32 2.0 3.0 0.00 0.00 0.00 88 1015.1
20260506210408 63 143 2.0 5.0 0.00 0.00 0.00 88 1015.2
20260506205908 63 121 2.0 3.0 0.00 0.00 0.00 88 1015.1
20260506205411 63 114 2.0 3.0 0.00 0.00 0.00 88 1015.1
20260506204908 63 135 2.0 3.0 0.00 0.00 0.00 88 1015.1
20260506204410 63 133 2.0 5.0 0.00 0.00 0.00 88 1015.2
20260506203908 63 119 2.0 3.0 0.00 0.00 0.00 88 1015.2
20260506203408 63 114 1.0 3.0 0.00 0.00 0.00 88 1015.2
20260506202908 63 112 2.0 3.0 0.00 0.00 0.00 88 1015.1
20260506201909 63 107 2.0 3.0 0.00 0.00 0.00 88 1015.1
20260506201409 63 120 2.0 3.0 0.00 0.00 0.00 88 1014.9
20260506200409 63 139 2.0 3.0 0.00 0.00 0.00 88 1014.9
20260506195909 63 119 2.0 3.0 0.00 0.00 0.00 88 1014.9
20260506194908 63 119 2.0 3.0 0.00 0.00 0.00 88 1014.8
20260506194408 63 98 2.0 3.0 0.00 0.00 0.00 88 1014.8
20260506193909 63 125 2.0 6.0 0.00 0.00 0.00 88 1014.8
20260506193408 63 121 2.0 5.0 0.00 0.00 0.00 87 1014.8
20260506192909 63 135 2.0 3.0 0.00 0.00 0.00 87 1014.8
20260506192409 63 97 2.0 3.0 0.00 0.00 0.00 87 1014.7
20260506191908 63 112 2.0 3.0 0.00 0.00 0.00 87 1014.8
20260506191409 63 118 2.0 3.0 0.00 0.00 0.00 87 1014.7
20260506190908 63 104 2.0 3.0 0.00 0.00 0.00 87 1014.7
20260506190410 63 67 1.0 3.0 0.00 0.00 0.00 87 1014.6
20260506185908 63 128 2.0 5.0 0.00 0.00 0.00 87 1014.6
20260506185408 63 107 2.0 3.0 0.00 0.00 0.00 87 1014.6
20260506184907 63 110 1.0 5.0 0.00 0.00 0.00 87 1014.5
20260506183908 63 104 2.0 3.0 0.00 0.00 0.00 86 1014.6
20260506183409 63 126 2.0 3.0 0.00 0.00 0.00 86 1014.6
20260506182408 63 108 2.0 3.0 0.00 0.00 0.00 86 1014.6
20260506181908 63 112 2.0 3.0 0.00 0.00 0.00 86 1014.6
20260506181408 63 150 2.0 3.0 0.00 0.00 0.00 86 1014.7
20260506180908 63 113 2.0 5.0 0.00 0.00 0.00 86 1014.6
20260506180413 63 114 3.0 6.0 0.00 0.00 0.00 86 1014.5
20260506175407 63 124 2.0 3.0 0.00 0.00 0.00 86 1014.6
20260506174908 63 144 2.0 5.0 0.00 0.00 0.00 86 1014.6
20260506174409 63 126 2.0 3.0 0.00 0.00 0.00 86 1014.6
20260506173908 63 122 2.0 3.0 0.00 0.00 0.00 86 1014.6
20260506173408 63 87 2.0 5.0 0.00 0.00 0.00 85 1014.5
20260506172907 63 130 1.0 6.0 0.00 0.00 0.00 85 1014.6
20260506172407 63 127 2.0 3.0 0.00 0.00 0.00 85 1014.5
20260506171908 63 173 2.0 3.0 0.00 0.00 0.00 85 1014.5
20260506171407 63 132 2.0 3.0 0.00 0.00 0.00 85 1014.4
20260506165908 63 108 2.0 5.0 0.00 0.00 0.00 85 1014.1
20260506165406 64 108 3.0 9.0 0.00 0.00 0.00 85 1014.2
20260506164908 64 90 2.0 5.0 0.00 0.00 0.00 85 1014.2
20260506163908 64 132 2.0 3.0 0.00 0.00 0.00 85 1014.6
20260506163409 64 127 3.0 6.0 0.00 0.00 0.00 85 1014.6
20260506162908 64 117 3.0 6.0 0.00 0.00 0.00 85 1014.6
20260506162408 64 161 2.0 5.0 0.00 0.00 0.00 85 1014.5
20260506161909 64 131 3.0 7.0 0.00 0.00 0.00 84 1014.5
20260506160908 64 116 2.0 5.0 0.00 0.00 0.00 84 1014.5
20260506160408 64 125 2.0 6.0 0.00 0.00 0.00 84 1014.5
20260506155908 64 107 3.0 5.0 0.00 0.00 0.00 84 1014.6
20260506155408 64 107 3.0 6.0 0.00 0.00 0.00 83 1014.6
20260506154908 64 117 3.0 6.0 0.00 0.00 0.00 83 1014.7
20260506153907 65 117 3.0 12.0 0.00 0.00 0.00 83 1014.5
20260506153408 65 115 2.0 6.0 0.00 0.00 0.00 83 1014.4
20260506152908 65 102 2.0 7.0 0.00 0.00 0.00 83 1014.4
20260506152408 65 128 2.0 6.0 0.00 0.00 0.00 83 1014.5
20260506151407 65 131 2.0 6.0 0.00 0.00 0.00 83 1014.6
20260506150908 65 137 2.0 6.0 0.00 0.00 0.00 83 1014.7
20260506150413 65 133 2.0 5.0 0.00 0.00 0.00 83 1014.7
20260506145907 65 125 2.0 5.0 0.00 0.00 0.00 83 1014.6
20260506145407 65 131 3.0 6.0 0.00 0.00 0.00 83 1014.6
20260506144907 65 123 2.0 8.0 0.00 0.00 0.00 83 1014.8
20260506144408 65 114 3.0 6.0 0.00 0.00 0.00 82 1014.8
20260506143408 65 130 3.0 6.0 0.00 0.00 0.00 82 1014.9
20260506141908 65 128 3.0 6.0 0.00 0.00 0.00 83 1014.6
20260506141407 65 84 2.0 6.0 0.00 0.00 0.00 83 1014.7
20260506140907 65 134 2.0 3.0 0.00 0.00 0.00 83 1014.7
20260506140408 65 130 3.0 8.0 0.00 0.00 0.00 84 1014.9
20260506135907 65 121 2.0 6.0 0.00 0.00 0.00 84 1014.9
20260506135408 65 130 2.0 5.0 0.00 0.00 0.00 84 1014.9
20260506134908 65 116 2.0 6.0 0.00 0.00 0.00 84 1014.8
20260506133907 64 108 2.0 3.0 0.00 0.00 0.00 85 1014.9
20260506133407 64 158 2.0 5.0 0.00 0.00 0.00 85 1015.0
20260506132908 64 133 2.0 6.0 0.00 0.00 0.00 84 1015.1
20260506132408 64 155 1.0 5.0 0.00 0.00 0.00 84 1015.2
20260506131907 64 126 2.0 7.0 0.00 0.00 0.00 84 1015.2
20260506130914 64 99 1.0 5.0 0.00 0.00 0.00 85 1015.2
20260506130408 64 94 2.0 3.0 0.00 0.00 0.00 85 1015.3
20260506125930 64 146 2.0 10.0 0.00 0.00 0.00 85 1015.3
20260506084910 65 141 3.0 7.0 0.00 0.00 0.00 82 1015.5
20260506084409 65 130 3.0 5.0 0.00 0.00 0.00 82 1015.5
20260506083911 65 139 2.0 5.0 0.00 0.00 0.00 82 1015.5
20260506082909 65 140 2.0 5.0 0.00 0.00 0.00 82 1015.4
20260506082409 65 126 2.0 7.0 0.00 0.00 0.00 82 1015.4
20260506081911 65 127 3.0 7.0 0.00 0.00 0.00 82 1015.4
20260506081409 65 141 3.0 6.0 0.00 0.00 0.00 81 1015.4
20260506080909 65 144 2.0 5.0 0.00 0.00 0.00 82 1015.4
20260506080409 65 113 2.0 3.0 0.00 0.00 0.00 82 1015.3
20260506073409 64 122 2.0 3.0 0.00 0.00 0.00 85 1015.1
20260506072910 64 106 2.0 3.0 0.00 0.00 0.00 85 1015.1
20260506072410 64 128 2.0 3.0 0.00 0.00 0.00 86 1015.2
20260506071910 64 139 3.0 5.0 0.00 0.00 0.00 86 1015.3
20260506070909 64 158 2.0 3.0 0.00 0.00 0.00 86 1015.5
20260506062409 63 129 2.0 5.0 0.00 0.00 0.00 89 1015.1
20260506061909 63 134 2.0 3.0 0.00 0.00 0.00 90 1015.1
20260506061410 63 129 2.0 3.0 0.00 0.00 0.00 90 1015.1
20260506060909 63 127 2.0 3.0 0.00 0.00 0.00 91 1015.1
20260506060410 63 148 2.0 3.0 0.00 0.00 0.00 91 1015.0
20260506050909 62 125 2.0 3.0 0.00 0.00 0.00 93 1014.5
20260506050410 62 111 2.0 3.0 0.00 0.00 0.00 93 1014.4
20260506044910 62 106 2.0 3.0 0.00 0.00 0.00 93 1014.7
20260506044414 62 104 1.0 3.0 0.00 0.00 0.00 93 1014.7
20260506043910 62 134 2.0 3.0 0.00 0.00 0.00 93 1014.7
20260506043411 62 109 2.0 3.0 0.00 0.00 0.00 93 1014.6
20260506042410 62 109 1.0 3.0 0.00 0.00 0.00 93 1014.5
20260506041910 62 107 2.0 3.0 0.00 0.00 0.00 93 1014.5
20260506041410 62 107 1.0 3.0 0.00 0.00 0.00 93 1014.4
20260506040910 62 139 2.0 3.0 0.00 0.00 0.00 93 1014.4
20260506040410 62 91 1.0 3.0 0.00 0.00 0.00 93 1014.4
20260506035910 62 146 1.0 3.0 0.00 0.00 0.00 93 1014.3
20260506035409 62 106 1.0 3.0 0.00 0.00 0.00 93 1014.2
20260506034909 62 103 2.0 3.0 0.00 0.00 0.00 93 1014.2
20260506034414 62 62 2.0 3.0 0.00 0.00 0.00 92 1014.1
20260506033910 62 91 2.0 3.0 0.00 0.00 0.00 92 1014.2
20260506033410 62 101 1.0 3.0 0.00 0.00 0.00 92 1014.2
20260506032909 62 84 2.0 3.0 0.00 0.00 0.00 92 1014.2
20260506032411 62 85 2.0 6.0 0.00 0.00 0.00 92 1014.3
20260506031910 62 80 2.0 3.0 0.00 0.00 0.00 92 1014.3
20260506031410 62 72 2.0 3.0 0.00 0.00 0.00 92 1014.3
20260506030409 62 94 1.0 3.0 0.00 0.00 0.00 92 1014.3
20260506025910 62 77 2.0 3.0 0.00 0.00 0.00 92 1014.3
20260506024909 62 95 2.0 3.0 0.00 0.00 0.00 92 1014.3
20260506024415 62 79 2.0 3.0 0.00 0.00 0.00 92 1014.3